星链-30159 (STARLINK-30159 )

导读 | 豆包AI

STARLINK-30159是美国太空探索技术公司(SpaceX)星链(Starlink)卫星互联网星座的一员,由美国于2023年7月24日发射,星链计划旨在构建全球卫星互联网组网,该卫星入轨后服务覆盖区域提供高速低延迟网络接入,目前已在近地轨道完成部署正常运行。

基本信息
目录编号:
57440
目录名称:
STARLINK-30159
国际标识:
2023-105L
轨道中心:
EARTH
卫星名称:
星链-30159
卫星全名:
星链-30159 (STARLINK-30159 )
卫星状态:
已陨落 最后检测时间 2026-01-13
发射日期:
2023-07-24 UTC
国别 :
美国 (US)
星等 :
--
轨道信息
数据来源 国际轨道数据
星历时间: 2026-01-13T03:17:51+0800
轨道信息已过期62天
半长轴: 6609.8km
偏心率: 0.0003223
轨道倾角: 42.990°
近地点辐角 282.368°
升交点赤经 173.291°
平近点角 77.684°
近地点: 229.532km
远地点: 233.794km
周期: 89.134分钟
每日圈数: 16.155496
详细信息
固有亮度:
5
最大亮度:
0.3
卫星平台:
Starlink v2.0 mini
覆盖范围:
全球
运营商:
太空探索技术公司
运营商所在国:
美国
制造商(研发单位):
太空探索技术公司
制造商所在国:
美国
使用方式:
暂无
卫星简介
星链(Starlink)计划是由太空探索技术公司(SpaceX)提出的一个巨型低轨卫星互联网星座项目,计划在2019年至2024年间在太空搭建由约1.2万颗卫星组成的“星链”网络,其中1584颗将部署在地球上空550千米处的近地轨道,并从2020年开始工作。该卫星仍在工作。